www.pogodaiklimat.ru

Погода и климат >> Архив погоды >> Гана >> Tema


ПОГОДА в Tema

  • Прогноз погоды в Tema
  • Монитор погоды в Tema
  • Климат города

АРХИВ ПОГОДЫ в Tema

Время (UTC), дата Ветер
(напр.,м/с)
 
Видим.   Явления Облачность Т
(С)
Тd
(С)
f
(%)
Тe
(С)
Тes
(С)
Комфортность P
(гПа)
Po
(гПа)
Тmin
(С)
Tmax
(С)
R
(мм)
R24
(мм)
S
(см)
06 9.07 ЮЗ 2 12 км 9/5 330 м
[Sc Ac trans]
+25.5 +23.7 90 +35 +35 очень
душно
1013.1 1013.0 +24.8 0.0
09 9.07 ЮЗ 1 18 км 8/5 400 м
[Cu Sc Ac trans]
+27.4 +24.5 84 +39 +42 очень
душно
1015.5 1016.0
12 9.07 ЮЗ 3 18 км 6/3 480 м
[Cu med, cong Ci sp]
+28.5 +24.3 78 +40 +51 опасность
солнечного
удара
1014.1 1014.0
15 9.07 ЮЗ 2 18 км 8/3 500 м
[Cu med, cong Cs]
+28.0 +24.8 83 +40 +46 очень
душно
1012.0 1012.0
18 9.07 СЗ 3 18 км 8/8 360 м
[Sc Ac trans Cs]
+26.8 +24.4 87 +38 +38 очень
душно
1012.6 1013.0 +29.0
00 10.07 ЮЗ 2 12 км 5/3 330 м
[Sc Ci sp]
+25.6 +24.0 91 +35 +35 очень
душно
1014.6 1015.0
06 10.07 З 2 14 км 6/5 330 м
[Sc Ci sp]
+25.0 +24.0 94 +34 +34 очень
душно
1014.1 1014.0 +24.9
09 10.07 З 1 14 км 6/6 330 м
[Cu Sc]
+27.5 +24.2 82 +38 +43 очень
душно
1015.4 1015.0
12 10.07 ЮЗ 3 16 км 5/3 480 м
[Cu med, cong Ac trans]
+28.1 +23.9 78 +39 +50 очень
душно
1015.3 1015.0
15 10.07 ЮЗ 1 16 км 6/1 480 м
[Cu med, cong Ac trans Cs]
+27.4 +24.0 82 +38 +46 очень
душно
1012.7 1013.0
18 10.07 ЮЗ 3 14 км 8/0
[Ac trans Cs]
+26.1 +24.3 90 +36 +36 очень
душно
1013.1 1013.0 +29.0
21 10.07 ЮЗ 2 10 км 8/0
[Ac trans Cs]
+26.0 +24.4 91 +36 +36 очень
душно
1014.9 1015.0
00 11.07 ЮЗ 5 10 км 5/0
[Ci sp]
+25.5 +24.1 92 +35 +35 очень
душно
1013.4 1013.0
06 11.07 СЗ 2 14 км 8/4 360 м
[Sc Ac trans Cs]
+25.0 +22.9 88 +33 +33 очень
душно
1014.1 1014.0 +25.0
12 11.07 ЮЗ 3 17 км 6/3 480 м
[Cu med, cong Cs]
+28.8 +23.5 73 +39 +50 очень
душно
1014.5 1015.0
15 11.07 ЮЗ 4 18 км 5/1 480 м
[Cu med, cong Ac trans Ci sp]
+27.1 +24.6 86 +38 +43 очень
душно
1012.5 1013.0
18 11.07 ЮЗ 4 16 км 8/3 360 м
[Cb cap Ac trans Cs]
+26.4 +23.9 86 +36 +36 очень
душно
1012.4 1012.0 +30.2
21 11.07 ЮЗ 4 12 км 5/0
[Ac trans Ci sp]
+25.6 +24.0 91 +35 +35 очень
душно
1014.3 1014.0
00 12.07 ЮЗ 3 12 км 5/0
[Ci sp]
+25.5 +23.7 90 +35 +35 очень
душно
1015.1 1015.0
03 12.07 ЮЗ 2 12 км 6/5 300 м
[Sc Ci sp]
+25.5 +23.6 89 +35 +35 очень
душно
1013.6 1014.0
06 12.07 ЮЗ 4 14 км 9/4 300 м
[Sc Ac trans]
+25.7 +23.4 87 +35 +35 очень
душно
1014.2 1014.0 +25.5
09 12.07 ЮЗ 1 15 км 8/5 330 м
[Cu Sc Ac trans Ci sp]
+28.1 +23.3 75 +38 +42 очень
душно
1015.5 1016.0
12 12.07 ЮЗ 4 16 км 6/3 480 м
[Cu med, cong Ac trans Ci sp]
+28.8 +24.2 76 +40 +48 очень
душно
1014.4 1014.0
21 12.07 ЮЗ 1 16 км 5/3 360 м
[Sc Ci sp]
+24.8 +23.4 92 +33 +33 очень
душно
1014.7 1015.0
06 13.07 ЮЗ 1 12 км 8/1 330 м
[Sc Ac trans]
+24.8 +23.0 90 +33 +33 очень
душно
1014.0 1014.0 +24.8
09 13.07 ЮЗ 2 18 км 8/3 400 м
[Sc Ac trans]
+27.1 +22.7 77 +36 +41 очень
душно
1014.9 1015.0
12 13.07 ЮЗ 5 18 км 9/4 500 м
[Cu med, cong Ac trans Cs]
+28.1 +23.9 78 +39 +43 очень
душно
1014.4 1014.0
15 13.07 ЮЗ 3 18 км 8/3 500 м
[Cu med, cong Ac trans Cs]
+27.0 +24.3 85 +38 +42 очень
душно
1012.4 1012.0
03 14.07 З 1 12 км 9/0
[Ac trans]
+25.5 +23.2 87 +34 +34 очень
душно
1012.3 1012.0
09 14.07 ЮЗ 1 14 км 9/5 330 м
[Sc Ac trans]
+26.2 +23.5 85 +36 +39 очень
душно
1014.8 1015.0
12 14.07 ЮЗ 3 16 км {дождь} 9/5 330 м
[Cu Sc Ac trans]
+26.5 +23.8 85 +36 +41 очень
душно
1014.4 1014.0 0.0
15 14.07 ЮЗ 2 18 км 5/0
[Ac trans Ci sp]
+27.8 +24.0 80 +39 +47 очень
душно
1011.6 1012.0
18 14.07 ЮЗ 3 16 км 8/3 300 м
[Sc Ac trans Ci sp]
+25.5 +23.7 90 +35 +35 очень
душно
1011.7 1012.0 +29.2 0.0
21 14.07 ЮЗ 2 10 км 9/9 300 м
[Sc]
+25.0 +24.0 94 +34 +34 очень
душно
1015.8 1016.0
00 15.07 ЮЗ 5 10 км 6/5 300 м
[Sc Ac trans Ci sp]
+25.0 +23.6 92 +34 +34 очень
душно
1013.4 1013.0
06 15.07 З 3 14 км 9/9 360 м
[Sc Ac trans]
+25.0 +22.9 88 +33 +33 очень
душно
1012.5 1013.0 +22.5 0.0
09 15.07 ЮЗ 2 16 км 9/4 400 м
[Sc Ac trans]
+26.8 +22.9 79 +36 +39 очень
душно
1013.7 1014.0
18 15.07 ЮЗ 4 17 км 8/3 360 м
[Cu Sc Ac trans]
+26.0 +23.3 85 +35 +35 очень
душно
1012.3 1012.0 +28.9
21 15.07 ЮЗ 2 12 км 4/0
[Ac trans]
+24.8 +23.0 90 +33 +33 очень
душно
1013.6 1014.0
00 16.07 ЮЗ 3 12 км 6/3 300 м
[Sc Ac trans]
+25.0 +23.2 90 +33 +33 очень
душно
1014.0 1014.0

 

Местоположение метеостанции Tema (Гана): широта 5.62 долгота 0.00 высота над уровнем моря 18 м.

В архиве по умолчанию представлена погода в Tema за последнюю неделю. Архивные данные за месяц целиком и за предыдущие месяцы, начиная с января 2011 года, Вы можете получить, выбрав интересующий диапазон дат из раскрывающегося списка и нажав кнопку "Ввод!".


*Определитесь, кто Вы:
робот инопланетянин человек

Внимание! Время в таблицах - всемирное. Для получения местного времени необходимо прибавить поправку, которая в Tema равна 1 ч.

Смотрите также архив погоды в соседних городах и на ближайших метеорологических станциях:

Погода в Accra (Гана) (19 км)
Погода в Akuse (Гана) (55 км)
Погода в Koforidua (Гана) (58 км)
Погода в Ada (Гана) (72 км)
Погода в Akatsi (Гана) (105 км)
Погода в Akim Oda (Гана) (114 км)
Погода в Ho (Гана) (121 км)
Погода в Saltpond (Гана) (127 км)
Погода в Abetifi (Гана) (143 км)
Погода в Lome (Того) (151 км)

Пояснения к столбцам:

Ветер - указаны скорость ветра в м/с - средняя за 10 мин, порывы в срок и между сроками (в фигурных скобках) и направление, откуда дует ветер: С - северный, СВ - северо-восточный, В - восточный, ЮВ - юго-восточный, Ю - южный, ЮЗ - юго-западный, З - западный, СЗ - северо-западный.
Видимость - горизонтальная дальность видимости в метрах или километрах. При видимости от 1 до 10 км при отсутствии осадков обычно наблюдается дымка, при ухудшении видимости до 1 км и менее - туман. В сухую погоду видимость может ухудшаться дымом, пылью или мглою.
Явления - указаны атмосферные явления, наблюдавшиеся в срок или в последний час перед сроком; фигурными скобками обозначены явления, наблюдавшиеся между сроками (за 1-3 часа до срока); квадратными скобками обозначены град или гололедные отложения с указанием их диаметра в мм.
Облачность - указаны через наклонную черту общая и нижняя облачность в баллах и высота нижней границы облаков в метрах; квадратными скобками обозначены формы облаков: Ci - перистые, Cs - перисто-слоистые, Cc - перисто-кучевые, Ac - высококучевые, As - высокослоистые, Sc - слоисто-кучевые, Ns - слоисто-дождевые, Cu - кучевые, Cb - кучево-дождевые. Подробнее классификацию облаков см. в Атласе облаков (PDF).
T - Температура воздуха - температура, измеренная на высоте 2 м над землей.
Td - Температура точки росы - температура, при понижении до которой содержащийся в воздухе водяной пар достигнет насыщения.
f - Относительная влажность воздуха - влажноcть воздуха, измеренная на высоте 2 м над землей.
Te - Эффективная температура - температура, которую ощущает одетый по сезону человек в тени. Характеристика душности погоды. При расчете учитывается влияние влажности воздуха и скорости ветра на теплоощущения человека.
Tes - Эффективная температура на солнце - температура, которую ощущает человек, с поправкой на солнечный нагрев. Характеристика знойности погоды. Зависит от высоты солнца над горизонтом, облачности и скорости ветра. Ночью, в пасмурную погоду, а также при ветре 12 м/с и более поправка равна нулю.
P - Атмосферное давление - приведенное к уровню моря атмосферное давление.
Po - Атмосферное давление - измеренное на уровне метеостанции атмосферное давление.
Tmin - Минимальная температура - минимум температуры воздуха на высоте 2 м над землей.
Tmax - Максимальная температура - максимум температуры воздуха на высоте 2 м над землей.
R - Количество осадков - Количество выпавших осадков за период времени, мм. При наведении курсора мыши на число - период времени, за который выпало указанное количество осадков.
R24 - Количество осадков - Количество выпавших осадков за 24 часа, мм.
S - Снежный покров - Высота снежного покрова, см. При наведении курсора мыши на число - состояние снежного покрова и степень покрытия местности в баллах.